軌道要素
73P/Schwassmann-Wachmann B
Epoch 2006 May 25.0 TT = JDT 2453880.5
T 2006 June 7.92466 TT MPC
q 0.9390718 (2000.0) P Q
n 0.18394396 Peri. 198.80779 -0.02873648 +0.98221260
a 3.0620506 Node 69.88766 -0.88989677 +0.05940885
e 0.6933193 Incl. 11.39726 -0.45525592 -0.17812634
P 5.36
>From 436 observations 2006 Jan. 6-Apr. 6, mean residual 0".67.
73P/Schwassmann-Wachmann C
Epoch 2006 May 25.0 TT = JDT 2453880.5
T 2006 June 6.95722 TT MPC
q 0.9391224 (2000.0) P Q
n 0.18403396 Peri. 198.81074 -0.02861081 +0.98222001
a 3.0610522 Node 69.89188 -0.88989958 +0.05950950
e 0.6932028 Incl. 11.39572 -0.45525834 -0.17805186
P 5.36
>From 829 observations 2005 Dec. 17-2006 Apr. 6, mean residual 0".61.
73P/Schwassmann-Wachmann G
Epoch 2006 May 25.0 TT = JDT 2453880.5
T 2006 June 8.09061 TT MPC
q 0.9390445 (2000.0) P Q
n 0.18335156 Peri. 198.79170 -0.02877990 +0.98219628
a 3.0686426 Node 69.90125 -0.88990965 +0.05940218
e 0.6939870 Incl. 11.40122 -0.45522800 -0.17821857
P 5.38
>From 200 observations 2006 Feb. 13-Apr. 6, mean residual 0".77.
73P/Schwassmann-Wachmann H
Epoch 2006 May 25.0 TT = JDT 2453880.5
T 2006 June 8.29143 TT MPC
q 0.9390996 (2000.0) P Q
n 0.18445957 Peri. 198.82465 -0.02878297 +0.98222305
a 3.0563418 Node 69.86824 -0.88987662 +0.05934690
e 0.6927374 Incl. 11.39480 -0.45529236 -0.17808935
P 5.34
>From 61 observations 2006 Mar. 4-Apr. 5, mean residual 0".74.
73P/Schwassmann-Wachmann J
Epoch 2006 May 25.0 TT = JDT 2453880.5
T 2006 June 8.15961 TT MPC
q 0.9389579 (2000.0) P Q
n 0.18610780 Peri. 198.91045 -0.02852160 +0.98227527
a 3.0382698 Node 69.79820 -0.88977982 +0.05950650
e 0.6909564 Incl. 11.38528 -0.45549796 -0.17774777
P 5.30
>From 39 observations 2006 Mar. 5-Apr. 2, mean residual 0".74.
73P/Schwassmann-Wachmann K
Epoch 2006 May 25.0 TT = JDT 2453880.5
T 2006 June 8.25349 TT MPC
q 0.9407410 (2000.0) P Q
n 0.18338945 Peri. 198.49339 -0.03041795 +0.98213126
a 3.0682199 Node 70.10031 -0.89033302 +0.05782782
e 0.6933919 Incl. 11.39177 -0.45429271 -0.17909253
P 5.37
>From 15 observations 2006 Mar. 5-Mar. 25, mean residual 0".70.
73P/Schwassmann-Wachmann L
Epoch 2006 May 25.0 TT = JDT 2453880.5
T 2006 June 8.35170 TT MPC
q 0.9389566 (2000.0) P Q
n 0.18452205 Peri. 198.85155 -0.02861397 +0.98222841
a 3.0556519 Node 69.85152 -0.88983823 +0.05951000
e 0.6927148 Incl. 11.39590 -0.45537804 -0.17800535
P 5.34
>From 25 observations 2006 Mar. 5-Apr. 4, mean residual 0".79.
73P/Schwassmann-Wachmann M
Epoch 2006 May 25.0 TT = JDT 2453880.5
T 2006 June 8.27901 TT MPC
q 0.9397602 (2000.0) P Q
n 0.18367772 Peri. 198.64954 -0.02944794 +0.98217822
a 3.0650088 Node 70.00237 -0.89012363 +0.05872445
e 0.6933907 Incl. 11.39321 -0.45476669 -0.17854241
P 5.37
>From 41 observations 2006 Mar. 23-Apr. 5, mean residual 0".83.
73P/Schwassmann-Wachmann N
Epoch 2006 May 25.0 TT = JDT 2453880.5
T 2006 June 8.27383 TT MPC
q 0.9402992 (2000.0) P Q
n 0.18351863 Peri. 198.50376 -0.03033986 +0.98214987
a 3.0667799 Node 70.09429 -0.89033183 +0.05785788
e 0.6933920 Incl. 11.38688 -0.45430026 -0.17898074
P 5.37
>From 30 observations 2006 Mar. 23-Apr. 6, mean residual 0".74.
73P/Schwassmann-Wachmann P
Epoch 2006 May 25.0 TT = JDT 2453880.5
T 2006 June 7.91525 TT MPC
q 0.9387966 (2000.0) P Q
n 0.18816747 Peri. 199.01175 -0.02833741 +0.98234561
a 3.0160579 Node 69.70813 -0.88967158 +0.05955220
e 0.6887339 Incl. 11.37047 -0.45572083 -0.17734327
P 5.24
>From 24 observations 2006 Mar. 23-Apr. 7, mean residual 0".85.
73P/Schwassmann-Wachmann Q
Epoch 2006 May 25.0 TT = JDT 2453880.5
T 2006 June 7.72559 TT MPC
q 0.9388296 (2000.0) P Q
n 0.18395339 Peri. 198.86149 -0.02860825 +0.98221509
a 3.0619459 Node 69.84237 -0.88981064 +0.05955873
e 0.6933879 Incl. 11.40103 -0.45543232 -0.17806256
P 5.36
>From 16 observations 2006 Mar. 23-Apr. 7, mean residual 0".52.
73P/Schwassmann-Wachmann R
Epoch 2006 May 25.0 TT = JDT 2453880.5
T 2006 June 8.19422 TT MPC
q 0.9395387 (2000.0) P Q
n 0.18374479 Peri. 198.70571 -0.02925740 +0.98219011
a 3.0642629 Node 69.95808 -0.89004209 +0.05890953
e 0.6933883 Incl. 11.39442 -0.45493855 -0.17841595
P 5.36
>From 51 observations 2006 Mar. 24-Apr. 6, mean residual 0".79.
73P/Schwassmann-Wachmann S
Epoch 2006 May 25.0 TT = JDT 2453880.5
T 2006 June 8.64461 TT MPC
q 0.9836419 (2000.0) P Q
n 0.17140597 Peri. 189.49381 -0.07334539 +0.97940664
a 3.2096086 Node 76.47408 -0.90184886 +0.01538951
e 0.6935321 Incl. 11.15536 -0.42578056 -0.20131022
P 5.75
>From 11 observations 2006 Mar. 24-Mar. 25, mean residual 0".91.
73P/Schwassmann-Wachmann T
Epoch 2006 May 25.0 TT = JDT 2453880.5
T 2006 June 8.60059 TT MPC
q 0.9265623 (2000.0) P Q
n 0.18763157 Peri. 201.65964 -0.01712807 +0.98263131
a 3.0217981 Node 67.75299 -0.88554295 +0.07089754
e 0.6933738 Incl. 11.51576 -0.46424165 -0.17149127
P 5.25
>From 19 observations 2006 Mar. 23-Apr. 2, mean residual 0".64.
73P/Schwassmann-Wachmann U
Epoch 2006 May 25.0 TT = JDT 2453880.5
T 2006 June 8.60851 TT MPC
q 0.9197852 (2000.0) P Q
n 0.18971570 Peri. 203.19996 -0.01145593 +0.98282508
a 2.9996266 Node 66.56522 -0.88309184 +0.07646041
e 0.6933668 Incl. 11.58037 -0.46906030 -0.16795438
P 5.20
>From 15 observations 2006 Mar. 23-Apr. 2, mean residual 0".79.
73P/Schwassmann-Wachmann V
Epoch 2006 May 25.0 TT = JDT 2453880.5
T 2006 June 8.48985 TT MPC
q 0.9126730 (2000.0) P Q
n 0.19194869 Peri. 204.83482 -0.00521513 +0.98299170
a 2.9763176 Node 65.31728 -0.88040687 +0.08253884
e 0.6933550 Incl. 11.65599 -0.47419041 -0.16405687
P 5.13
>From 15 observations 2006 Mar. 23-Apr. 2, mean residual 0".85.
73P/Schwassmann-Wachmann W
T 2006 June 8.5039 TT MPC
q 0.939123 (2000.0) P Q
n 0.1839441 Peri. 198.7865 -0.0289101 +0.9822285
a 3.062049 Node 69.8981 -0.8899431 +0.0591864
e 0.693302 Incl. 11.3896 -0.4551543 -0.1781129
P 5.36
>From 8 observations 2006 Mar. 23-Apr. 2.
73P/Schwassmann-Wachmann X
Epoch 2006 May 25.0 TT = JDT 2453880.5
T 2006 June 8.55532 TT MPC
q 0.9410789 (2000.0) P Q
n 0.17789248 Peri. 198.16053 -0.03089945 +0.98195847
a 3.1311051 Node 70.40207 -0.89074264 +0.05762273
e 0.6994419 Incl. 11.42160 -0.45345648 -0.18010328
P 5.54
>From 10 observations 2006 Mar. 23-Apr. 5, mean residual 0".74.
73P/Schwassmann-Wachmann Y
T 2006 June 8.7780 TT MPC
q 0.939123 (2000.0) P Q
n 0.1839441 Peri. 198.7744 -0.0291920 +0.9822187
a 3.062049 Node 69.8940 -0.8899517 +0.0589378
e 0.693302 Incl. 11.3904 -0.4551195 -0.1782493
P 5.36
>From 12 observations 2006 Mar. 23-Apr. 2.
73P/Schwassmann Wachmann Z
T 2006 June 8.312 TT MPC
q 0.94225 (2000.0) P Q
n 0.183030 Peri. 197.962 0.031901 +0.982128
a 3.07224 Node 70.536 0.891191 +0.056071
e 0.69330 Incl. 11.346 0.452505 0.179668
P 5.38
73P/Schwassmann Wachmann AA
T 2006 June 9.093 TT MPC
q 0.93931 (2000.0) P Q
n 0.183890 Peri. 198.726 0.029084 +0.982225
a 3.06265 Node 69.947 0.890039 +0.058991
e 0.69330 Incl. 11.385 0.454956 0.178196
P 5.36
73P/Schwassmann Wachmann AB
T 2006 June 8.693 TT MPC
q 0.93880 (2000.0) P Q
n 0.184038 Peri. 198.851 0.028755 +0.982238
a 3.06101 Node 69.844 0.889846 +0.059350
e 0.69330 Incl. 11.392 0.455355 0.178007
P 5.36
73P/Schwassmann Wachmann AC
T 2006 June 8.689 TT MPC
q 0.93880 (2000.0) P Q
n 0.184039 Peri. 198.875 0.028619 +0.982240
a 3.06099 Node 69.828 0.889808 +0.059490
e 0.69330 Incl. 11.394 0.455437 0.177951
P 5.36
73P/Schwassmann Wachmann AD
T 2006 June 8.694 TT MPC
q 0.94167 (2000.0) P Q
n 0.183198 Peri. 198.119 0.031305 +0.982146
a 3.07035 Node 70.416 0.890954 +0.056695
e 0.69330 Incl. 11.355 0.453013 0.179374
P 5.38
73P/Schwassmann Wachmann AE
T 2006 June 8.361 TT MPC
q 0.93986 (2000.0) P Q
n 0.183729 Peri. 198.590 0.029704 +0.982204
a 3.06444 Node 70.045 0.890241 +0.058371
e 0.69330 Incl. 11.379 0.454521 0.178515
P 5.36
73P/Schwassmann Wachmann AF
T 2006 June 6.842 TT MPC
q 0.94144 (2000.0) P Q
n 0.183265 Peri. 198.217 0.031617 +0.982157
a 3.06961 Node 70.302 0.890797 +0.056432
e 0.69330 Incl. 11.356 0.453301 0.179398
P 5.38
73P/Schwassmann Wachmann AG
T 2006 June 9.003 TT MPC
q 0.93850 (2000.0) P Q
n 0.184126 Peri. 198.923 0.028766 +0.982236
a 3.06003 Node 69.773 0.889723 +0.059392
e 0.69330 Incl. 11.398 0.455594 0.178005
P 5.35
73P/Schwassmann Wachmann AH
T 2006 June 8.629 TT MPC
q 0.94293 (2000.0) P Q
n 0.182832 Peri. 197.755 0.032653 +0.982116
a 3.07445 Node 70.695 0.891511 +0.055248
e 0.69330 Incl. 11.331 0.451820 0.179990
P 5.39
73P/Schwassmann Wachmann AI
T 2006 June 8.737 TT MPC
q 0.93912 (2000.0) P Q
n 0.183944 Peri. 198.806 0.028799 +0.982226
a 3.06205 Node 69.885 0.889910 +0.059311
e 0.69330 Incl. 11.392 0.455227 0.178084
P 5.36
73P/Schwassmann Wachmann AJ
T 2006 June 8.692 TT MPC
q 0.93912 (2000.0) P Q
n 0.183944 Peri. 198.772 0.029053 +0.982220
a 3.06205 Node 69.904 0.889958 +0.059065
e 0.69330 Incl. 11.391 0.455117 0.178200
P 5.36
73P/Schwassmann Wachmann AK
T 2006 June 8.472 TT MPC
q 0.93912 (2000.0) P Q
n 0.183944 Peri. 198.780 0.029045 +0.982224
a 3.06205 Node 69.897 0.889949 +0.059067
e 0.69330 Incl. 11.390 0.455134 0.178178
P 5.36
73P/Schwassmann Wachmann AL
T 2006 June 8.456 TT MPC
q 0.93912 (2000.0) P Q
n 0.183944 Peri. 198.804 0.028883 +0.982227
a 3.06205 Node 69.883 0.889913 +0.059227
e 0.69330 Incl. 11.391 0.455215 0.178107
P 5.36
73P/Schwassmann Wachmann AM
T 2006 June 8.267 TT MPC
q 0.93912 (2000.0) P Q
n 0.183944 Peri. 198.815 0.028826 +0.982224
a 3.06205 Node 69.876 0.889894 +0.059297
e 0.69330 Incl. 11.394 0.455257 0.178100
P 5.36
73P/Schwassmann-Wachmann AN
T 2006 June 8.327 TT MPC
q 0.93912 (2000.0) P Q
n 0.183944 Peri. 198.801 -0.028899 +0.982226
a 3.06205 Node 69.885 -0.889917 +0.059214
e 0.69330 Incl. 11.392 -0.455206 -0.178118
P 5.36
73P/Schwassmann-Wachmann AO
T 2006 June 7.769 TT MPC
q 0.94685 (2000.0) P Q
n 0.181698 Peri. 196.024 -0.038508 +0.982272
a 3.08724 Node 72.052 -0.894324 +0.048024
e 0.69330 Incl. 11.119 -0.445759 -0.181206
P 5.42
73P/Schwassmann-Wachmann AP
T 2006 June 6.688 TT MPC
q 0.93912 (2000.0) P Q
n 0.183944 Peri. 198.817 -0.028737 +0.982217
a 3.06205 Node 69.878 -0.889884 +0.059403
e 0.69330 Incl. 11.397 -0.455280 -0.178105
P 5.36
73P/Schwassmann-Wachmann AQ
T 2006 June 7.915 TT MPC
